Wind_Speed
14 14 14 14 14 14 13 12 11 10 10 11 10 9 8 8 7 7 7 6 6 6 6 6 6 6 6 7 8 9 10 10 10 11 11 11 11 11 10 9 9 9 8 7 7 7 7 7 6
14 14 14 14 15 14 13 12 11 11 10 11 11 10 9 8 7 7 7 7 7 7 7 6 6 7 6 7 8 9 10 10 10 10 12 12 11 10 10 9 9 9 8 8 7 7 7 6 6
14 14 14 14 14 13 13 12 12 11 11 11 11 10 9 8 7 7 7 8 8 7 7 6 6 7 8 8 8 8 9 9 9 10 11 12 12 11 10 9 9 9 8 8 8 7 7 7 6
14 14 14 13 13 12 12 12 12 11 11 11 11 10 9 8 8 8 8 8 7 8 7 8 7 8 8 8 8 9 9 9 10 10 11 12 12 11 10 10 10 9 8 8 8 8 8 8 7
14 15 14 13 12 12 12 12 12 12 11 11 11 10 10 9 9 8 8 8 8 8 8 8 8 8 7 8 8 9 9 8 9 10 10 10 11 10 9 10 10 9 8 7 7 6 6 6 6
15 15 14 13 12 12 12 12 12 12 12 11 11 10 10 10 9 9 9 9 8 7 8 8 7 7 8 8 8 8 8 8 9 9 9 9 9 9 9 9 9 8 7 7 7 6 5 5 5
13 13 13 13 12 12 12 12 12 12 11 11 11 10 10 10 9 9 8 9 8 8 7 7 7 8 7 7 8 8 8 8 9 9 9 9 10 10 9 8 8 7 7 6 6 5 4 4 4
12 12 11 11 11 11 11 11 11 11 11 11 11 10 10 10 9 9 8 8 8 7 7 7 8 8 8 8 8 8 9 9 8 8 8 9 9 9 8 8 8 7 7 6 5 4 4 4 4
11 11 10 10 10 10 11 11 11 11 11 11 10 10 10 10 9 8 8 8 7 7 7 7 7 7 8 8 7 8 9 8 7 7 7 8 7 8 7 7 7 7 7 6 6 4 4 4 4
10 9 9 10 10 10 10 11 11 11 10 11 11 10 10 9 9 8 8 8 7 7 7 7 7 7 7 7 7 6 7 7 6 6 5 5 6 6 6 6 6 6 6 6 5 5 4 4 3
8 8 9 9 9 9 10 10 10 10 10 10 10 10 9 9 9 8 8 8 8 8 8 7 7 7 6 6 6 6 6 5 5 5 5 4 5 5 5 5 6 6 5 5 5 4 4 4 4
7 7 7 7 9 9 10 10 9 9 9 9 9 9 9 9 9 8 8 8 8 8 7 7 7 7 6 6 5 5 5 5 4 4 4 4 3 4 4 4 5 6 6 5 4 4 5 5 5
5 6 6 6 7 8 9 9 9 8 8 8 8 8 9 9 9 8 8 8 8 7 7 7 7 7 6 6 5 5 5 4 3 3 3 3 2 2 2 3 4 4 5 5 5 5 6 6 6
3 4 4 5 6 6 7 8 8 7 7 7 7 7 7 8 8 7 7 7 7 7 7 7 7 7 6 6 5 5 4 4 4 3 3 3 2 2 2 2 3 5 5 5 5 6 6 7 7
2 2 2 3 4 4 5 5 5 6 6 6 6 6 6 6 6 6 6 6 6 6 6 6 6 6 6 6 5 5 4 4 3 3 3 3 2 2 2 2 4 5 5 5 6 6 7 7 8
1 1 2 2 2 3 4 4 4 5 5 5 4 4 4 5 5 5 5 5 5 5 5 5 5 5 5 5 4 4 3 3 2 2 2 2 2 2 2 2 3 4 5 6 6 7 7 8 8
1 1 1 1 2 2 2 2 3 3 3 4 4 3 3 4 4 4 4 4 5 5 5 5 5 4 4 4 4 4 3 3 2 2 2 1 0 1 1 2 2 3 5 6 7 7 8 9 9
3 3 2 3 3 2 1 0 1 1 1 2 2 2 2 2 2 3 3 3 4 4 4 4 3 3 3 4 4 4 3 2 2 2 2 1 2 2 2 2 3 3 4 5 6 7 8 8 7
5 4 4 4 4 3 2 1 1 1 0 0 1 1 2 1 1 1 1 2 3 3 3 3 3 3 3 3 3 3 3 2 2 2 1 2 2 2 2 2 2 3 4 5 6 6 6 7 7
7 7 7 6 5 4 3 3 3 3 3 3 3 2 2 2 2 1 1 1 1 2 2 2 2 2 2 2 2 3 2 2 2 2 3 3 3 3 3 4 3 3 4 4 5 5 6 7 8
8 8 8 7 6 6 5 4 4 4 4 4 4 4 4 3 3 2 2 1 1 1 1 1 1 1 1 1 2 2 2 2 2 2 3 4 3 4 4 4 5 5 5 5 6 6 7 7 8
9 9 9 8 7 6 6 5 6 5 5 6 6 5 5 4 4 4 4 3 2 2 1 1 1 1 2 2 2 2 3 2 3 3 4 5 5 5 5 5 5 5 5 6 6 7 8 8 8
11 11 10 9 8 8 7 6 7 7 6 7 7 7 7 7 6 6 6 5 4 3 3 2 2 2 3 3 3 4 4 3 4 4 4 5 6 6 6 6 6 6 6 7 7 8 8 9 10
12 12 11 10 9 10 9 8 9 8 8 8 8 8 8 8 7 7 7 7 6 5 5 5 4 4 4 4 5 5 5 5 5 5 6 6 6 6 6 7 7 8 8 8 9 9 10 10 10
14 13 12 11 12 12 11 11 10 10 9 9 8 8 8 9 9 8 8 8 8 7 7 7 6 6 6 6 6 7 7 7 7 7 7 7 7 7 7 8 8 9 9 10 10 10 10 10 11
16 15 14 13 13 13 13 12 12 11 10 9 9 9 9 9 9 9 9 9 10 9 9 9 8 8 8 7 8 8 8 8 8 8 8 8 8 9 8 9 10 10 10 10 11 10 10 11 11
17 17 16 16 16 14 14 14 13 12 11 11 11 10 10 9 10 10 10 10 11 11 10 10 10 10 9 9 9 10 10 10 10 10 10 10 10 10 9 10 11 11 11 11 12 11 12 12 12
19 18 18 17 16 16 15 14 13 13 12 12 12 12 12 11 11 11 11 12 12 12 12 12 12 12 12 12 11 11 12 12 12 12 11 11 11 11 11 11 11 11 12 12 13 12 13 13 13
20 20 20 19 18 17 16 15 15 14 14 13 13 13 13 12 12 12 12 13 13 13 13 13 13 14 13 13 13 13 14 14 13 13 13 13 12 12 12 13 13 13 13 14 14 14 14 14 15
22 22 21 21 21 19 17 17 17 15 15 15 15 15 15 15 14 14 14 15 15 15 15 15 14 15 15 15 15 15 15 14 14 14 14 14 14 14 14 14 14 14 15 15 15 15 16 16 16
Wind_Direction
81 80 79 79 78 78 79 79 79 80 79 79 80 80 85 90 90 91 90 86 84 92 101 111 118 123 124 125 128 137 144 148 151 152 150 148 149 151 150 147 146 152 153 150 151 153 157 157 153
85 83 79 78 79 79 77 79 77 78 79 78 76 76 81 87 90 90 91 88 87 96 104 115 113 119 117 127 133 137 144 148 152 152 150 149 150 150 146 145 143 149 149 146 145 149 151 155 154
86 81 77 77 78 80 78 77 76 77 78 78 75 74 79 85 87 87 87 87 90 95 103 109 112 110 112 121 130 135 141 146 151 150 150 150 149 149 146 143 142 142 144 143 145 144 150 151 156
87 82 76 76 77 78 76 74 74 75 77 77 75 75 77 81 84 86 85 83 87 94 103 111 111 109 110 114 118 126 134 138 143 143 147 150 150 149 150 148 144 145 145 142 146 150 150 154 162
84 80 76 72 75 75 72 72 73 75 72 72 72 73 74 81 83 86 87 84 87 93 101 108 111 113 112 110 114 121 127 137 145 146 151 152 149 147 148 151 149 147 150 150 154 156 156 156 166
84 79 74 73 74 75 71 69 70 73 71 70 70 71 75 81 83 85 88 87 88 92 98 109 112 111 112 112 116 120 124 133 142 148 153 153 152 153 154 155 153 155 155 156 156 154 158 167 168
86 81 76 74 73 71 69 70 71 72 71 69 69 70 76 80 83 86 88 88 89 91 91 102 113 113 116 113 113 118 122 130 140 146 152 158 160 160 163 162 162 164 164 161 162 161 161 168 175
83 79 76 71 71 68 69 69 70 72 70 68 69 70 74 77 82 85 85 87 91 94 93 96 105 114 116 113 112 117 125 128 133 144 156 163 168 169 172 174 174 174 172 173 173 172 170 177 181
84 80 77 73 71 71 72 71 69 68 70 68 68 71 72 74 77 82 85 88 92 95 92 93 96 105 112 113 113 119 120 124 129 138 153 161 161 171 179 179 175 175 177 180 183 189 191 191 197
84 85 78 73 72 76 77 73 70 69 70 67 67 70 71 73 75 82 86 86 89 93 94 94 94 102 106 111 113 119 120 120 126 138 143 155 170 176 179 180 178 180 183 188 192 204 211 216 225
81 81 77 74 72 75 75 74 69 67 71 68 67 70 73 76 78 83 86 89 91 93 96 95 94 101 106 112 118 121 122 121 124 131 137 141 160 170 176 176 187 192 195 205 208 212 222 238 244
80 79 79 74 72 77 77 76 70 66 66 68 70 73 73 76 78 86 89 90 92 91 92 90 93 98 104 109 115 122 128 126 128 145 147 138 147 167 177 187 195 201 204 213 217 218 233 246 253
84 79 79 75 71 78 77 74 70 65 63 66 69 71 74 77 80 84 89 90 91 90 88 86 88 94 100 101 106 119 125 125 132 149 152 142 152 177 197 211 207 212 218 225 231 240 248 254 264
92 85 85 77 70 74 74 73 72 67 64 62 65 70 74 76 79 84 90 90 90 89 86 86 86 93 95 95 100 106 110 113 130 137 140 147 159 171 198 215 218 223 235 243 253 256 257 264 269
103 88 77 68 60 60 65 70 72 65 62 60 63 70 74 74 77 82 87 88 87 88 88 87 87 86 86 89 90 94 102 99 106 126 127 143 159 177 201 228 237 237 240 245 254 261 264 263 268
115 76 50 31 42 51 65 65 63 59 63 64 63 67 76 79 78 80 84 85 83 82 85 87 86 81 79 81 84 84 93 97 91 102 117 132 150 175 202 223 240 247 248 252 256 260 269 270 273
204 222 264 332 1 17 48 59 49 54 57 62 59 58 69 76 71 71 82 88 83 80 84 87 84 79 77 76 76 78 83 88 96 99 84 87 143 206 232 239 248 259 256 251 257 261 266 273 280
226 239 264 289 312 330 337 38 29 31 52 57 46 39 36 64 64 66 82 90 83 80 80 84 82 84 82 75 69 70 68 72 81 78 59 23 352 332 307 260 252 255 253 259 264 267 269 276 279
226 246 260 272 289 298 303 287 264 278 298 4 0 352 344 359 52 59 61 94 87 84 79 74 76 73 67 66 59 54 48 62 51 38 11 345 338 342 340 314 280 271 267 265 266 272 276 279 281
232 242 258 263 271 280 284 286 271 263 262 270 291 298 288 277 282 238 181 143 104 86 79 71 66 60 62 61 40 34 39 32 20 20 2 352 341 343 340 346 338 319 301 283 295 295 285 286 287
238 244 255 261 264 273 282 288 272 268 265 271 285 289 282 278 270 253 229 203 177 141 79 61 43 17 19 6 349 353 14 358 341 353 354 345 336 341 336 334 324 316 310 296 297 296 292 294 296
243 245 253 259 260 272 276 279 274 263 267 272 274 274 277 271 259 247 238 226 209 213 236 322 344 339 335 327 324 326 331 333 336 333 333 335 329 330 329 323 314 307 304 296 292 294 296 301 303
241 248 252 258 265 267 274 268 274 268 269 269 268 266 266 265 257 249 242 236 230 234 259 282 293 303 311 311 310 316 317 308 326 333 326 332 336 337 335 328 323 311 304 302 297 297 295 299 301
243 252 257 260 265 268 271 269 270 273 270 269 267 263 261 257 254 250 247 243 240 243 258 271 283 298 299 297 299 305 308 309 316 322 328 329 333 334 329 323 319 316 309 306 304 298 296 298 299
244 249 258 263 264 269 272 267 267 270 268 267 263 260 255 252 252 252 249 247 247 249 258 270 279 288 294 294 296 296 299 303 308 312 316 316 319 324 323 318 315 312 311 310 309 304 301 301 301
246 246 250 256 265 270 272 269 271 272 269 264 260 259 256 254 251 253 254 251 250 253 261 269 271 276 285 289 295 296 294 295 298 302 306 304 307 310 314 312 314 310 307 307 308 304 305 305 304
246 247 249 255 262 265 270 273 271 273 269 265 260 256 254 254 253 257 256 255 257 257 260 264 265 268 275 280 287 293 293 292 292 293 296 297 299 304 307 307 309 310 309 310 310 306 304 303 304
247 249 252 256 258 261 267 273 274 272 269 263 260 257 256 256 256 255 255 255 259 260 262 265 268 267 270 275 280 288 289 290 287 284 285 290 294 298 300 299 301 305 306 307 306 305 305 301 302
248 247 248 253 254 258 264 269 269 268 266 261 257 255 257 258 256 252 253 256 257 260 262 266 269 271 272 275 279 283 287 286 283 280 280 286 288 292 295 294 296 300 303 303 301 301 302 301 299
246 247 247 250 254 257 261 266 267 265 263 261 258 256 257 258 256 254 254 257 258 259 263 268 270 272 275 276 278 280 284 285 281 283 283 282 284 290 293 294 294 296 298 300 300 298 298 298 298
Height
5893 5892 5892 5892 5892 5892 5891 5890 5889 5888 5886 5885 5884 5884 5883 5883 5883 5885 5882 5880 5880 5879 5878 5878 5878 5877 5877 5877 5876 5877 5878 5878 5879 5880 5881 5882 5883 5884 5885 5886 5887 5888 5889 5889 5889 5890 5891 5891 5892
5895 5894 5895 5894 5894 5894 5893 5891 5890 5889 5888 5886 5885 5885 5884 5883 5883 5883 5882 5881 5880 5880 5879 5879 5879 5878 5878 5878 5878 5878 5879 5879 5880 5881 5882 5883 5884 5885 5886 5887 5888 5889 5889 5890 5891 5891 5892 5892 5893
5896 5896 5897 5897 5896 5896 5894 5893 5891 5890 5889 5888 5887 5886 5885 5885 5884 5883 5883 5882 5881 5880 5880 5880 5880 5879 5878 5878 5879 5879 5879 5880 5881 5882 5883 5884 5885 5886 5887 5888 5889 5889 5890 5891 5892 5892 5892 5893 5893
5898 5899 5900 5900 5898 5897 5895 5894 5892 5891 5890 5889 5888 5887 5886 5886 5885 5885 5884 5883 5883 5882 5881 5881 5881 5880 5880 5880 5880 5880 5880 5881 5882 5883 5884 5885 5886 5887 5888 5889 5889 5890 5891 5892 5892 5893 5893 5893 5894
5900 5901 5902 5901 5900 5899 5897 5895 5894 5893 5891 5890 5889 5888 5888 5887 5886 5886 5885 5885 5884 5883 5883 5882 5882 5882 5881 5881 5881 5881 5881 5882 5883 5884 5885 5886 5887 5888 5889 5889 5890 5891 5892 5893 5893 5893 5893 5894 5895
5903 5904 5905 5903 5902 5901 5899 5897 5895 5894 5893 5892 5891 5890 5889 5888 5888 5887 5886 5886 5885 5885 5884 5884 5884 5884 5883 5883 5883 5882 5882 5883 5884 5885 5886 5887 5888 5889 5890 5890 5891 5892 5893 5893 5894 5894 5894 5895 5895
5906 5906 5906 5905 5904 5902 5901 5899 5897 5896 5895 5894 5893 5892 5890 5890 5889 5888 5888 5887 5887 5886 5886 5885 5885 5885 5885 5884 5884 5884 5884 5884 5885 5886 5887 5888 5889 5890 5891 5892 5892 5893 5893 5894 5894 5895 5895 5895 5896
5908 5909 5908 5907 5906 5904 5903 5901 5899 5898 5896 5895 5894 5893 5892 5892 5891 5890 5889 5889 5889 5888 5888 5887 5887 5886 5886 5886 5885 5885 5885 5886 5886 5887 5888 5889 5889 5890 5891 5892 5893 5894 5894 5894 5895 5895 5896 5896 5896
5909 5912 5910 5909 5907 5906 5904 5902 5901 5899 5898 5897 5896 5895 5894 5893 5892 5892 5891 5891 5890 5890 5889 5889 5888 5888 5888 5887 5887 5887 5887 5887 5888 5888 5888 5889 5890 5891 5892 5893 5893 5894 5894 5894 5895 5896 5896 5896 5896
5911 5912 5911 5910 5908 5907 5905 5904 5903 5901 5900 5899 5898 5897 5896 5895 5894 5893 5893 5892 5892 5891 5891 5891 5890 5890 5889 5889 5889 5889 5889 5889 5889 5889 5890 5890 5891 5892 5892 5893 5893 5894 5894 5895 5895 5896 5896 5896 5896
5913 5913 5912 5911 5909 5908 5907 5906 5905 5903 5902 5901 5900 5899 5898 5897 5896 5895 5895 5894 5893 5893 5893 5892 5892 5891 5891 5891 5890 5890 5890 5890 5890 5890 5890 5891 5891 5892 5892 5893 5893 5894 5894 5895 5895 5895 5896 5896 5896
5914 5914 5913 5912 5911 5910 5908 5907 5906 5905 5904 5903 5902 5900 5899 5898 5898 5897 5896 5896 5895 5895 5895 5894 5893 5893 5892 5892 5892 5892 5891 5891 5891 5891 5891 5891 5892 5892 5893 5893 5893 5894 5894 5895 5895 5895 5895 5895 5895
5915 5915 5914 5913 5912 5911 5910 5909 5908 5907 5906 5904 5903 5902 5901 5900 5899 5899 5898 5898 5897 5897 5896 5896 5895 5894 5894 5893 5893 5893 5892 5892 5891 5891 5891 5892 5892 5893 5893 5893 5893 5894 5894 5894 5894 5895 5895 5894 5894
5916 5916 5915 5914 5914 5913 5912 5910 5910 5908 5907 5906 5905 5904 5903 5902 5901 5901 5900 5900 5899 5899 5898 5897 5896 5896 5895 5895 5894 5894 5893 5892 5892 5892 5892 5892 5893 5893 5893 5893 5893 5893 5893 5894 5894 5894 5894 5894 5893
5917 5917 5917 5916 5915 5914 5913 5912 5911 5909 5908 5907 5906 5905 5904 5904 5903 5902 5902 5901 5901 5900 5899 5899 5898 5897 5896 5896 5895 5894 5894 5894 5893 5893 5893 5893 5893 5893 5893 5893 5893 5893 5893 5893 5893 5893 5893 5893 5892
5917 5918 5918 5917 5915 5914 5915 5914 5912 5910 5909 5908 5907 5907 5906 5905 5905 5904 5903 5902 5902 5901 5900 5900 5899 5898 5897 5897 5896 5895 5895 5894 5894 5894 5893 5893 5893 5893 5893 5892 5892 5892 5892 5892 5892 5892 5892 5891 5891
5918 5918 5918 5917 5916 5915 5915 5914 5913 5911 5910 5909 5909 5908 5907 5906 5906 5905 5904 5903 5903 5902 5901 5901 5900 5899 5899 5898 5897 5896 5895 5895 5895 5894 5894 5893 5893 5893 5892 5892 5891 5891 5891 5890 5890 5891 5890 5890 5889
5918 5918 5917 5917 5915 5915 5914 5914 5913 5912 5911 5910 5909 5909 5908 5907 5907 5906 5905 5904 5904 5903 5902 5902 5901 5900 5900 5899 5898 5897 5896 5895 5895 5894 5894 5893 5893 5892 5892 5891 5891 5890 5890 5889 5889 5889 5888 5888 5888
5916 5916 5916 5916 5915 5914 5914 5913 5913 5912 5911 5910 5910 5909 5908 5908 5907 5906 5906 5905 5904 5904 5903 5902 5902 5901 5900 5899 5898 5897 5896 5895 5895 5894 5894 5893 5892 5891 5891 5891 5890 5890 5889 5888 5888 5887 5887 5887 5886
5914 5914 5915 5915 5914 5914 5913 5913 5912 5911 5911 5910 5910 5909 5908 5907 5907 5906 5906 5905 5905 5904 5904 5903 5902 5901 5900 5900 5899 5898 5897 5896 5895 5894 5893 5893 5892 5891 5891 5890 5890 5889 5888 5888 5887 5887 5886 5885 5884
5912 5913 5913 5913 5913 5913 5913 5913 5912 5911 5910 5910 5909 5908 5908 5907 5907 5906 5906 5905 5905 5904 5904 5903 5902 5902 5901 5900 5899 5898 5897 5896 5896 5895 5894 5893 5892 5891 5890 5890 5889 5888 5887 5887 5886 5885 5884 5884 5883
5910 5911 5911 5911 5911 5912 5912 5913 5911 5910 5909 5909 5908 5908 5907 5906 5906 5906 5906 5905 5904 5904 5903 5903 5902 5901 5901 5900 5899 5898 5897 5896 5895 5894 5893 5893 5891 5890 5889 5889 5888 5887 5886 5885 5885 5884 5883 5882 5881
5908 5908 5908 5909 5909 5910 5910 5911 5911 5909 5908 5908 5907 5906 5905 5905 5905 5905 5905 5905 5904 5904 5903 5903 5902 5901 5900 5899 5899 5898 5897 5896 5894 5893 5892 5891 5890 5889 5888 5888 5887 5886 5885 5884 5883 5882 5881 5880 5879
5905 5905 5906 5906 5907 5908 5908 5909 5908 5907 5906 5906 5905 5904 5904 5903 5903 5903 5904 5904 5903 5903 5903 5902 5901 5901 5900 5899 5898 5897 5896 5895 5893 5892 5891 5891 5890 5889 5888 5887 5886 5885 5884 5883 5882 5881 5879 5878 5877
5901 5903 5905 5905 5906 5906 5906 5905 5906 5904 5904 5903 5902 5902 5902 5902 5902 5902 5902 5902 5902 5902 5901 5901 5900 5900 5899 5898 5897 5896 5895 5894 5893 5891 5891 5890 5889 5888 5887 5886 5884 5883 5882 5881 5880 5878 5877 5876 5875
5898 5900 5902 5903 5904 5904 5902 5902 5903 5901 5901 5900 5900 5900 5899 5899 5899 5900 5900 5900 5900 5900 5900 5899 5899 5898 5898 5896 5895 5895 5893 5892 5891 5890 5889 5888 5887 5886 5885 5884 5883 5881 5880 5879 5878 5876 5875 5874 5872
5894 5895 5897 5898 5899 5899 5899 5899 5898 5898 5897 5897 5897 5896 5896 5896 5897 5897 5897 5898 5898 5898 5898 5897 5897 5896 5896 5895 5894 5893 5891 5890 5889 5888 5887 5886 5885 5884 5883 5882 5881 5879 5878 5876 5875 5874 5872 5871 5869
5890 5891 5892 5893 5894 5895 5896 5895 5895 5894 5894 5893 5893 5893 5893 5894 5894 5894 5895 5895 5895 5895 5895 5895 5894 5894 5893 5892 5891 5890 5889 5887 5886 5885 5884 5883 5882 5881 5880 5879 5878 5876 5875 5874 5872 5871 5870 5868 5867
5885 5886 5887 5888 5889 5891 5892 5894 5891 5890 5890 5890 5890 5890 5890 5890 5891 5891 5892 5892 5892 5892 5892 5892 5891 5891 5890 5889 5888 5887 5886 5883 5883 5882 5881 5880 5879 5878 5877 5876 5875 5874 5872 5871 5869 5868 5866 5865 5863
5878 5880 5882 5884 5884 5885 5886 5890 5886 5886 5886 5886 5886 5886 5887 5887 5888 5888 5888 5888 5888 5888 5888 5888 5887 5887 5886 5886 5885 5884 5882 5880 5879 5879 5878 5877 5876 5874 5873 5872 5871 5870 5869 5867 5866 5864 5863 5861 5860